Regional Weather Roundup
Issued by NWS Charleston, SC

Home | Current Version | Previous Version | Text Only | Print | Product List | Glossary On
Versions: 1 2 3 4 5 6 7 8 9 10 11 12 13 14 15 16 17 18 19 20 21 22 23 24 25 26 27 28 29 30 31 32 33 34 35 36 37 38 39 40 41 42 43 44 45 46 47 48 49 50
000
ASUS42 KCHS 300927
RWRCHS

REGIONAL WEATHER ROUNDUP
NATIONAL WEATHER SERVICE CHARLESTON SC
500 AM EDT THU JUL 30 2015

NOTE: "FAIR" INDICATES FEW OR NO CLOUDS BELOW 12,000 FEET WITH NO
SIGNIFICANT WEATHER AND/OR OBSTRUCTIONS TO VISIBILITY.

NOT ALL STATIONS ARE QUALITY CONTROLLED BY THE NATIONAL
WEATHER SERVICE. USE DATA WITH CAUTION...ESPECIALLY
DEWPOINT OBSERVATIONS.

SCZ027-030-031-034>040-042>050-301000-
...SOUTHEAST SOUTH CAROLINA...

CITY           SKY/WX    TMP DP  RH WIND       PRES   REMARKS
N CHARLESTON   CLEAR     75  73  93 N5        29.93F
WATERFRONT PRK NOT AVBL
MOUNT PLEASANT LGT RAIN  75  75 100 CALM      29.93S
JOHNS ISLAND   FAIR      77  75  94 N5        29.92F
PINOPOLIS      NOT AVBL
MONCKS CORNER  FAIR      75  72  88 CALM      29.93S
SUMMERVILLE    FAIR      73  73 100 CALM      29.93F
BEAUFORT MCAS  PTCLDY    78  76  93 NW6       29.93F
BEAUFORT ARPT  PTSUNNY   79  79 100 NW6       29.92S
HILTON HEAD IS CLEAR     79  77  94 NW6       29.93F
WALTERBORO     PTSUNNY   77  73  88 CALM      29.94S
ALLENDALE      FAIR      75  75 100 CALM      29.93S

...SOUTHERN MIDLANDS AND PEE DEE...

CITY           SKY/WX    TMP DP  RH WIND       PRES   REMARKS
GEORGETOWN     NOT AVBL
KINGSTREE      NOT AVBL
ORANGEBURG     CLEAR     77  74  90 CALM      29.94F
BARNWELL       FAIR      77  75  94 CALM      29.94F
AIKEN          FAIR      73  72  94 W3        29.98F
MANNING        FAIR      70  63  78 CALM      29.94S
COLUMBIA       MOCLDY    79  72  79 S3        29.93F
SUMTER         PTCLDY    76  71  86 CALM      29.93F
FLORENCE       CLEAR     75  70  84 NW3       29.94F
MYRTLE BEACH   CLEAR     75  70  83 CALM      29.95S
N MYRTLE BEACH CLEAR     73  71  93 N3        29.93F

$$

GAZ063-065-086>088-099>101-113>116-118-119-134>141-150-301000-
...SOUTHEAST GEORGIA...

CITY           SKY/WX    TMP DP  RH WIND       PRES   REMARKS
SAVANNAH ARPT  CLEAR     76  73  91 N3        29.93F
HUNTER AAF     CLEAR     78  78 100 NW6       29.90F
FORT STEWART   CLEAR     74  72  92 CALM      29.91F
STATESBORO     CLEAR     73  73 100 CALM      29.93S
SYLVANIA       MOSUNNY   76  75  95 CALM      29.94S
CLAXTON        FAIR      72  72 100 CALM      29.93S

...CSRA...CENTRAL AND FAR SOUTHEAST GEORGIA...

CITY           SKY/WX    TMP DP  RH WIND       PRES   REMARKS
THOMSON        CLEAR     75  75 100 CALM      29.98F
AUGUSTA-BUSH   PTCLDY    77  74  90 CALM      29.92F
AUGUSTA-DANIEL PTCLDY    77  71  82 CALM      29.94F
SWAINSBORO     FAIR     N/A N/A N/A CALM      29.94S
VIDALIA        HVY RAIN  77  73  88 NE3       29.93S
EASTMAN        FAIR      76  76 100 CALM      29.95S
HAZLEHURST     FAIR      77  77 100 CALM      29.92S
ALMA           MOCLDY    74  73  97 CALM      29.92S FOG
WAYCROSS       PTCLDY    77  77 100 CALM      29.92S FOG
JESUP          FAIR      75  73  94 CALM      29.93S
BAXLEY         FAIR      75  73  94 CALM      29.92S FOG
BRUNSWICK      CLEAR     73  72  94 CALM      29.93S
SAINT SIMONS   CLEAR     76  74  93 N6        29.92S

$$

SCZ027-028-034-036>038-045-046-048>050-GAZ119-141-301000-
...LAKE AND SUPPLEMENTAL COASTAL OBSERVATIONS...

STATION/POSITION TIME  TEMP    WIND        PRES    WAVE   SWELL
                       AIR SEA DIR/SP/G            HT/PER HT/PER/DIR
                 (UTC) (F)     (DEG/KT/KT) (MB)    (FT/S) (FT/S/D)
UPR LAKE MARION  NOT AVBL
WINYAH BAY       0800   76     320/  5     1013.0S
LAKE MURRAY      0800   80     220/ 10/ 12 1013.9S
ACE BASIN NERRS  NOT AVBL
FORT PULASKI     0900   79 86                N/A
SAPELO ISLAND    0900   78     350/  6     1013.0S

$$

ANZ835-935-AMZ111-154-330-350-352-354-370-450-454-472-301000-
...C-MAN AND BUOY OBSERVATIONS...

STATION/POSITION TIME  TEMP    WIND        PRES    WAVE   SWELL
                       AIR SEA DIR/SP/G            HT/PER HT/PER/DIR
                 (UTC) (F)     (DEG/KT/KT) (MB)    (FT/S) (FT/S/D)
BUOY 41004       0850   82 84   10/ 10/ 14 1012.0F   3/ 7   2/ 7
BUOY 41008       0850   81 82  340/ 10/ 14 1012.8F   2/ 5   2/ 90/ 5
FOLLY BEACH CMAN 0900   78     330/  4/  6 1013.2F
CAPERS NEARSHORE 0808   80     350/  8/ 10 1013.4F
FRIPP NEARSHORE  0800   82     330/  6/  6 1013.1F


STATION/POSITION TIME  TEMP    WIND        PRES    WAVE   SWELL
                       AIR SEA DIR/SP/G            HT/PER HT/PER/DIR
                 (UTC) (F)     (DEG/KT/KT) (MB)    (FT/S) (FT/S/D)
5E ST. MARYS GA  0821      83                N/A     2/ 6
FRYING PAN BUOY  0850   82 84   20/  8/ 10 1013.1F   3/ 6   3/130/ 6
BUOY 41025       0850   83 85  170/ 12/ 14 1013.3F   3/ 7   2/160/ 7
CAPE LOOKOUT NC  0900   81      60/  5/  6 1012.3F
BUOY 41002       0850   83 81  200/ 14/ 19 1014.4F   8/ 7   7/210/ 7
BUOY 41010       0820   83 84  250/ 14/ 17 1012.4F
ST AUGUSTINE FL  0900   74 81  260/  5/  6 1014.3F


$$



USA.gov is the U.S. government's official web portal to all federal, state and local government web resources and services.